Weather History for Wautoma, WI

Change the Weather History Date:

Tuesday, July 16, 2013

  Actual Average (KPCZ) Record (KPCZ)
Temperature  
Mean Temperature 80 °F -  
Max Temperature 95 °F 83 °F 98 °F (2012)
Min Temperature 68 °F 59 °F 45 °F (1966)
Cooling Degree Days 16    
Growing Degree Days 30 (Base 50)    
Moisture  
Dew Point 73 °F    
Average Humidity 78    
Maximum Humidity 100    
Minimum Humidity 50    
Precipitation  
Precipitation 0.00 in - - ()
Sea Level Pressure  
Sea Level Pressure 30.24 in    
Wind  
Wind Speed 3 mph (SW)    
Max Wind Speed 18 mph    
Max Gust Speed 28 mph    
Visibility 10 miles    
Events Rain    
Averages and records for this station are not official NWS values.
T = Trace of Precipitation, MM = Missing Value Source: NWS Daily Summary

Daily Weather History Graph

Daily Weather History Graph

Search for Another Location

Airport:

Trip Planner

Search our weather history database for the weather conditions in past years. The results will help you decide how hot, cold, wet, or windy it might be!

Date:

Astronomy

Jul. 16, 2013 Rise Set
Actual Time 5:29 AM CDT 8:36 PM CDT
Civil Twilight 4:54 AM CDT 9:11 PM CDT
Nautical Twilight 4:09 AM CDT 9:56 PM CDT
Astronomical Twilight 3:15 AM CDT 10:50 PM CDT
Moon 2:13 PM CDT (7/16) 12:05 AM CDT (7/16)
Length of Visible Light 16h 17m
Length of Day
15h 07m
First Quarter, 56% of the Moon is Illuminated
Jul 16
First Quarter
Jul 22
Full
Jul 29
Last Quarter
Aug 6
New
Aug 14
First Quarter

Hourly Weather History & Observations

Time (CDT) Temp. Heat Index Dew Point Humidity Pressure Visibility Wind Dir Wind Speed Gust Speed Precip Events Conditions
12:56 AM 72.9 °F - 72.9 °F 100% 30.24 in 10.0 mi Calm Calm - N/A   Clear
1:56 AM 70.9 °F - 70.9 °F 100% 30.25 in 10.0 mi Calm Calm - N/A   Clear
2:56 AM 70.0 °F - 70.0 °F 100% 30.24 in 10.0 mi Calm Calm - N/A   Clear
3:56 AM 68.9 °F - 68.9 °F 100% 30.24 in 10.0 mi Calm Calm - N/A   Clear
4:56 AM 70.0 °F - 70.0 °F 100% 30.25 in 10.0 mi Calm Calm - N/A   Mostly Cloudy
5:56 AM 70.0 °F - 70.0 °F 100% 30.25 in 10.0 mi Calm Calm - N/A   Mostly Cloudy
6:56 AM 74.8 °F - 74.8 °F 100% 30.25 in 10.0 mi Calm Calm - N/A   Clear
7:56 AM 79.9 °F - 75.9 °F 88% 30.26 in 10.0 mi SW 3.5 mph - N/A   Clear
8:56 AM 83.8 °F 91.4 °F 74.8 °F 74% 30.26 in 10.0 mi SW 5.8 mph - N/A   Partly Cloudy
9:56 AM 86.9 °F 97.3 °F 75.9 °F 70% 30.26 in 10.0 mi Variable 4.6 mph - N/A   Partly Cloudy
10:56 AM 88.9 °F 97.6 °F 73.9 °F 61% 30.25 in 10.0 mi Variable 5.8 mph - N/A   Scattered Clouds
11:56 AM 90.9 °F 98.9 °F 72.9 °F 55% 30.24 in 10.0 mi SW 6.9 mph - N/A   Clear
12:56 PM 91.4 °F 100.1 °F 73.4 °F 55% 30.26 in 10.0 mi SW 10.4 mph - N/A   Scattered Clouds
1:56 PM 90.9 °F 98.9 °F 72.9 °F 55% 30.22 in 10.0 mi WSW 6.9 mph - N/A   Mostly Cloudy
2:56 PM 93.9 °F 102.7 °F 72.9 °F 50% 30.21 in 10.0 mi SW 6.9 mph - N/A   Partly Cloudy
3:32 PM 80.6 °F 85.4 °F 73.4 °F 79% 30.25 in 10.0 mi WSW 18.4 mph 27.6 mph 0.07 in Rain Heavy Rain
3:56 PM 84.2 °F 92.3 °F 75.2 °F 74% 30.24 in 10.0 mi Calm Calm - N/A   Mostly Cloudy
4:56 PM 90.0 °F 100.2 °F 74.8 °F 61% 30.21 in 10.0 mi SSW 9.2 mph - 0.00 in   Partly Cloudy
5:56 PM 90.9 °F 100.0 °F 73.9 °F 57% 30.21 in 10.0 mi SW 9.2 mph - 0.00 in Rain Light Rain
6:56 PM 90.0 °F 100.2 °F 74.8 °F 61% 30.20 in 10.0 mi SSW 6.9 mph - 0.00 in   Clear
7:56 PM 86.0 °F 93.8 °F 73.9 °F 67% 30.19 in 10.0 mi SW 5.8 mph - 0.00 in   Clear
8:56 PM 81.0 °F 86.2 °F 73.9 °F 79% 30.20 in 10.0 mi WSW 4.6 mph - N/A   Clear
9:56 PM 79.0 °F - 73.9 °F 84% 30.22 in 10.0 mi SW 4.6 mph - N/A   Clear
10:56 PM 77.9 °F - 72.9 °F 84% 30.23 in 10.0 mi SW 4.6 mph - N/A   Clear
11:56 PM 75.9 °F - 73.9 °F 94% 30.25 in 10.0 mi NW 3.5 mph - N/A   Clear